Year,Month,Day,Hour,Minute,Value (Times are PST for temperature in C)
2008,10,27,10,32,11.80
2008,10,27,10,33,11.80
2008,10,27,10,34,11.80
2008,10,27,10,35,11.80
2008,10,27,10,36,11.80
2008,10,27,10,37,11.80
2008,10,27,10,38,11.80
2008,10,27,10,39,11.80
2008,10,27,10,40,11.90
2008,10,27,10,41,11.90
2008,10,27,10,42,11.90
2008,10,27,10,43,11.90
2008,10,27,10,44,12.00
2008,10,27,10,45,12.00
2008,10,27,10,46,12.00
2008,10,27,10,47,12.00
2008,10,27,10,48,12.00
2008,10,27,10,49,12.00
2008,10,27,10,50,12.10
2008,10,27,10,51,12.10
2008,10,27,10,52,12.10
2008,10,27,10,53,12.10
2008,10,27,10,54,12.10
2008,10,27,10,55,12.10
2008,10,27,10,56,12.10
2008,10,27,10,57,12.20
2008,10,27,10,58,12.20
2008,10,27,10,59,12.20
2008,10,27,11,00,12.20
2008,10,27,11,01,12.20
2008,10,27,11,02,12.20
2008,10,27,11,03,12.20
2008,10,27,11,04,12.20
2008,10,27,11,05,12.20
2008,10,27,11,06,12.20
2008,10,27,11,07,12.20
2008,10,27,11,08,12.20
2008,10,27,11,09,12.20
2008,10,27,11,10,12.30
2008,10,27,11,11,12.30
2008,10,27,11,12,12.30
2008,10,27,11,13,12.30
2008,10,27,11,14,12.30
2008,10,27,11,15,12.30
2008,10,27,11,16,12.30
2008,10,27,11,17,12.30
2008,10,27,11,18,12.40
2008,10,27,11,19,12.40
2008,10,27,11,20,12.50
2008,10,27,11,21,12.50
2008,10,27,11,22,12.50
2008,10,27,11,23,12.50
2008,10,27,11,24,12.60
2008,10,27,11,25,12.60
2008,10,27,11,26,12.60
2008,10,27,11,27,12.60
2008,10,27,11,28,12.50
2008,10,27,11,29,12.50
2008,10,27,11,30,12.50
2008,10,27,11,31,12.50
2008,10,27,11,32,12.50
2008,10,27,11,33,12.50
2008,10,27,11,34,12.50
2008,10,27,11,35,12.50
2008,10,27,11,36,12.50
2008,10,27,11,37,12.50
2008,10,27,11,38,12.50
2008,10,27,11,39,12.50
2008,10,27,11,40,12.50
2008,10,27,11,41,12.50
2008,10,27,11,42,12.50
2008,10,27,11,43,12.50
2008,10,27,11,44,12.50
2008,10,27,11,45,12.50
2008,10,27,11,46,12.50
2008,10,27,11,47,12.50
2008,10,27,11,48,12.50
2008,10,27,11,49,12.50
2008,10,27,11,50,12.50
2008,10,27,11,51,12.50
2008,10,27,11,52,12.50
2008,10,27,11,53,12.50
2008,10,27,11,54,12.50
2008,10,27,11,55,12.60
2008,10,27,11,56,12.60
2008,10,27,11,57,12.70
2008,10,27,11,58,12.70
2008,10,27,11,59,12.60
2008,10,27,12,00,12.60
2008,10,27,12,01,12.50
2008,10,27,12,02,12.50
2008,10,27,12,03,12.50
2008,10,27,12,04,12.50
2008,10,27,12,05,12.60
2008,10,27,12,06,12.60
2008,10,27,12,07,12.60
2008,10,27,12,08,12.60
2008,10,27,12,09,12.70
2008,10,27,12,10,12.70
2008,10,27,12,11,12.80
2008,10,27,12,12,12.80
2008,10,27,12,13,12.80
2008,10,27,12,14,12.80
2008,10,27,12,15,12.80
2008,10,27,12,16,12.80
2008,10,27,12,17,12.90
2008,10,27,12,18,12.90
2008,10,27,12,19,13.00
2008,10,27,12,20,13.10
2008,10,27,12,21,13.10
2008,10,27,12,22,13.20
2008,10,27,12,23,13.20
2008,10,27,12,24,13.20
2008,10,27,12,25,13.20
2008,10,27,12,26,13.20
2008,10,27,12,27,13.20
2008,10,27,12,28,13.20
2008,10,27,12,29,13.20
2008,10,27,12,30,13.10
2008,10,27,12,31,13.10
2008,10,27,12,32,13.10
2008,10,27,12,33,13.10
2008,10,27,12,34,13.10
2008,10,27,12,35,13.10
2008,10,27,12,36,13.20
2008,10,27,12,37,13.20
2008,10,27,12,38,13.20
2008,10,27,12,39,13.20
2008,10,27,12,40,13.20
2008,10,27,12,41,13.10
2008,10,27,12,42,13.10
2008,10,27,12,43,13.10
2008,10,27,12,44,13.10
2008,10,27,12,45,13.20
2008,10,27,12,46,13.20
2008,10,27,12,47,13.20
2008,10,27,12,48,13.20
2008,10,27,12,49,13.20
2008,10,27,12,50,13.10
2008,10,27,12,51,13.10
2008,10,27,12,52,13.10
2008,10,27,12,53,13.00
2008,10,27,12,54,13.00
2008,10,27,12,55,13.00
2008,10,27,12,56,13.10
2008,10,27,12,57,13.10
2008,10,27,12,58,13.00
2008,10,27,12,59,13.00
2008,10,27,13,00,13.00
2008,10,27,13,01,12.90
2008,10,27,13,02,12.80
2008,10,27,13,03,12.80
2008,10,27,13,04,12.80
2008,10,27,13,05,12.80
2008,10,27,13,06,12.80
2008,10,27,13,07,12.80
2008,10,27,13,08,12.80
2008,10,27,13,09,12.80
2008,10,27,13,10,12.80
2008,10,27,13,11,12.80
2008,10,27,13,12,12.80
2008,10,27,13,13,12.90
2008,10,27,13,14,12.90
2008,10,27,13,15,12.90
2008,10,27,13,16,13.00
2008,10,27,13,17,13.00
2008,10,27,13,18,13.00
2008,10,27,13,19,13.10
2008,10,27,13,20,13.10
2008,10,27,13,21,13.20
2008,10,27,13,22,13.30
2008,10,27,13,23,13.30
2008,10,27,13,24,13.30
2008,10,27,13,25,13.40
2008,10,27,13,26,13.40
2008,10,27,13,27,13.50
2008,10,27,13,28,13.40
2008,10,27,13,29,13.50
2008,10,27,13,30,13.50
2008,10,27,13,31,13.50
2008,10,27,13,32,13.60
2008,10,27,13,33,13.60
2008,10,27,13,34,13.60
2008,10,27,13,35,13.60
2008,10,27,13,36,13.70
2008,10,27,13,37,13.70
2008,10,27,13,38,13.70
2008,10,27,13,39,13.70
2008,10,27,13,40,13.70
2008,10,27,13,41,13.70
2008,10,27,13,42,13.70
2008,10,27,13,43,13.70
2008,10,27,13,44,13.70
2008,10,27,13,45,13.70
2008,10,27,13,46,13.80
2008,10,27,13,47,13.90
2008,10,27,13,48,13.90
2008,10,27,13,49,14.00
2008,10,27,13,50,14.00
2008,10,27,13,51,14.10
2008,10,27,13,52,14.10
2008,10,27,13,53,14.10
2008,10,27,13,54,14.10
2008,10,27,13,55,14.10
2008,10,27,13,56,14.20
2008,10,27,13,57,14.30
2008,10,27,13,58,14.30
2008,10,27,13,59,14.30
2008,10,27,14,00,14.40
2008,10,27,14,01,14.50
2008,10,27,14,02,14.50
2008,10,27,14,03,14.50
2008,10,27,14,04,14.40
2008,10,27,14,05,14.40
2008,10,27,14,06,14.30
2008,10,27,14,07,14.30
2008,10,27,14,08,14.20
2008,10,27,14,09,14.20
2008,10,27,14,10,14.20
2008,10,27,14,11,14.20
2008,10,27,14,12,14.20
2008,10,27,14,13,14.20
2008,10,27,14,14,14.20
2008,10,27,14,15,14.20
2008,10,27,14,16,14.20
2008,10,27,14,17,14.10
2008,10,27,14,18,14.10
2008,10,27,14,19,14.20
2008,10,27,14,20,14.20
2008,10,27,14,21,14.20
2008,10,27,14,22,14.20
2008,10,27,14,23,14.20
2008,10,27,14,24,14.20
2008,10,27,14,25,14.20
2008,10,27,14,26,14.40
2008,10,27,14,27,14.50
2008,10,27,14,28,14.50
2008,10,27,14,29,14.60
2008,10,27,14,30,14.60
2008,10,27,14,31,14.50
2008,10,27,14,32,14.50
2008,10,27,14,33,14.50
2008,10,27,14,34,14.40
2008,10,27,14,35,14.40
2008,10,27,14,36,14.40
2008,10,27,14,37,14.40
2008,10,27,14,38,14.40
2008,10,27,14,39,14.40
2008,10,27,14,40,14.40
2008,10,27,14,41,14.50
2008,10,27,14,42,14.60
2008,10,27,14,43,14.60
2008,10,27,14,44,14.60
2008,10,27,14,45,14.70
2008,10,27,14,46,14.80
2008,10,27,14,47,14.80
2008,10,27,14,48,14.90
2008,10,27,14,49,15.00
2008,10,27,14,50,15.00
2008,10,27,14,51,15.00
2008,10,27,14,52,15.00
2008,10,27,14,53,14.90
2008,10,27,14,54,14.90
2008,10,27,14,55,14.90
2008,10,27,14,56,14.90
2008,10,27,14,57,14.80
2008,10,27,14,58,14.80
2008,10,27,14,59,14.90
2008,10,27,15,00,14.80
2008,10,27,15,01,14.80
2008,10,27,15,02,14.80
2008,10,27,15,03,14.80
2008,10,27,15,04,14.80
2008,10,27,15,05,14.80
2008,10,27,15,06,14.80
2008,10,27,15,07,14.80
2008,10,27,15,08,14.80
2008,10,27,15,09,14.80
2008,10,27,15,10,14.80
2008,10,27,15,11,14.70
2008,10,27,15,12,14.70
2008,10,27,15,13,14.70
2008,10,27,15,14,14.60
2008,10,27,15,15,14.60
2008,10,27,15,16,14.50
2008,10,27,15,17,14.60
2008,10,27,15,18,14.60
2008,10,27,15,19,14.70
2008,10,27,15,20,14.70
2008,10,27,15,21,14.70
2008,10,27,15,22,14.70
2008,10,27,15,23,14.70
2008,10,27,15,24,14.70
2008,10,27,15,25,14.70
2008,10,27,15,26,14.70
2008,10,27,15,27,14.80
2008,10,27,15,28,14.80
2008,10,27,15,29,14.80
2008,10,27,15,30,14.80
2008,10,27,15,31,14.80
2008,10,27,15,32,14.80
2008,10,27,15,33,14.80
2008,10,27,15,34,14.80
2008,10,27,15,35,14.80
2008,10,27,15,36,14.80
2008,10,27,15,37,14.70
2008,10,27,15,38,14.60
2008,10,27,15,39,14.60
2008,10,27,15,40,14.50
2008,10,27,15,41,14.50
2008,10,27,15,42,14.50
2008,10,27,15,43,14.50
2008,10,27,15,44,14.50
2008,10,27,15,45,14.50
2008,10,27,15,46,14.50
2008,10,27,15,47,14.50
2008,10,27,15,48,14.50
2008,10,27,15,49,14.60
2008,10,27,15,50,14.60
2008,10,27,15,51,14.60
2008,10,27,15,52,14.60
2008,10,27,15,53,14.60
2008,10,27,15,54,14.60
2008,10,27,15,55,14.60
2008,10,27,15,56,14.60
2008,10,27,15,57,14.60
2008,10,27,15,58,14.70
2008,10,27,15,59,14.70
2008,10,27,16,00,14.80
2008,10,27,16,01,14.80
2008,10,27,16,02,14.80
2008,10,27,16,03,14.80
2008,10,27,16,04,14.80
2008,10,27,16,05,14.80
2008,10,27,16,06,14.80
2008,10,27,16,07,14.70
2008,10,27,16,08,14.60
2008,10,27,16,09,14.60
2008,10,27,16,10,14.50
2008,10,27,16,11,14.50
2008,10,27,16,12,14.50
2008,10,27,16,13,14.50
2008,10,27,16,14,14.40
2008,10,27,16,15,14.40
2008,10,27,16,16,14.40
2008,10,27,16,17,14.40
2008,10,27,16,18,14.40
2008,10,27,16,19,14.40
2008,10,27,16,20,14.40
2008,10,27,16,21,14.40
2008,10,27,16,22,14.40
2008,10,27,16,23,14.40
2008,10,27,16,24,14.40
2008,10,27,16,25,14.50
2008,10,27,16,26,14.50
2008,10,27,16,27,14.50
2008,10,27,16,28,14.60
2008,10,27,16,29,14.50
2008,10,27,16,30,14.50
2008,10,27,16,31,14.50
2008,10,27,16,32,14.40
2008,10,27,16,33,14.30
2008,10,27,16,34,14.20
2008,10,27,16,35,14.10
2008,10,27,16,36,14.00
2008,10,27,16,37,14.00
2008,10,27,16,38,13.90
2008,10,27,16,39,13.90
2008,10,27,16,40,13.80
2008,10,27,16,41,13.80
2008,10,27,16,42,13.70
2008,10,27,16,43,13.70
2008,10,27,16,44,13.70
2008,10,27,16,45,13.70
2008,10,27,16,46,13.70
2008,10,27,16,47,13.70
2008,10,27,16,48,13.60
2008,10,27,16,49,13.60
2008,10,27,16,50,13.60
2008,10,27,16,51,13.60
2008,10,27,16,52,13.60
2008,10,27,16,53,13.50
2008,10,27,16,54,13.50
2008,10,27,16,55,13.50
2008,10,27,16,56,13.50
2008,10,27,16,57,13.40
2008,10,27,16,58,13.40
2008,10,27,16,59,13.40
2008,10,27,17,00,13.30
2008,10,27,17,01,13.30
2008,10,27,17,02,13.30
2008,10,27,17,03,13.30
2008,10,27,17,04,13.30
2008,10,27,17,05,13.30
2008,10,27,17,06,13.30
2008,10,27,17,07,13.30
2008,10,27,17,08,13.30
2008,10,27,17,09,13.30
2008,10,27,17,10,13.30
2008,10,27,17,11,13.30
2008,10,27,17,12,13.30
2008,10,27,17,13,13.20
2008,10,27,17,14,13.20
2008,10,27,17,15,13.20
2008,10,27,17,16,13.20
2008,10,27,17,17,13.10
2008,10,27,17,18,13.10
2008,10,27,17,19,13.10
2008,10,27,17,20,13.00
2008,10,27,17,21,13.00
2008,10,27,17,22,13.00
2008,10,27,17,23,13.00
2008,10,27,17,24,12.90
2008,10,27,17,25,12.90
2008,10,27,17,26,12.90
2008,10,27,17,27,12.90
2008,10,27,17,28,12.90
2008,10,27,17,29,12.90
2008,10,27,17,30,12.80
2008,10,27,17,31,12.80
2008,10,27,17,32,12.80
2008,10,27,17,33,12.80
2008,10,27,17,34,12.80
2008,10,27,17,35,12.80
2008,10,27,17,36,12.80
2008,10,27,17,37,12.80
2008,10,27,17,38,12.80
2008,10,27,17,39,12.80
2008,10,27,17,40,12.80
2008,10,27,17,41,12.80
2008,10,27,17,42,12.80
2008,10,27,17,43,12.80
2008,10,27,17,44,12.70
2008,10,27,17,45,12.70
2008,10,27,17,46,12.70
2008,10,27,17,47,12.70
2008,10,27,17,48,12.70
2008,10,27,17,49,12.70
2008,10,27,17,50,12.60
2008,10,27,17,51,12.60
2008,10,27,17,52,12.60
2008,10,27,17,53,12.60
2008,10,27,17,54,12.60
2008,10,27,17,55,12.60
2008,10,27,17,56,12.60
2008,10,27,17,57,12.60
2008,10,27,17,58,12.60
2008,10,27,17,59,12.60
2008,10,27,18,00,12.60
